Location: Callanans Corners
(42.5326°N, 73.8846°W)
Time: 14:10:59
(UTC+00:00)

Cosmos 1025 Rocket - Pass Details

Date: 06 October 2022
Orbit: 594 x 616 km, 82.5° (Epoch: 29 November)

Event Time Altitude Azimuth Distance (km) Brightness Sun altitude
Rises 23:17:51 0° 5° (N) 2,864 6.5 -10.0°
Reaches altitude 10° 23:20:28 10° 20° (NNE) 1,960 5.5 -10.4°
Maximum altitude 23:23:55 23° 73° (ENE) 1,313 4.2 -11.1°
Enters shadow 23:26:31 14° 117° (ESE) 1,711 4.8 -11.6°
